Year,Month,Day,Hour,Minute,Value (Times are PST for temperature in C)
2010,08,23,00,00,13.70
2010,08,23,00,01,13.80
2010,08,23,00,02,13.80
2010,08,23,00,03,13.80
2010,08,23,00,04,13.80
2010,08,23,00,05,13.80
2010,08,23,00,06,13.80
2010,08,23,00,07,13.80
2010,08,23,00,08,13.70
2010,08,23,00,09,13.70
2010,08,23,00,10,13.70
2010,08,23,00,11,13.60
2010,08,23,00,12,13.60
2010,08,23,00,13,13.70
2010,08,23,00,14,13.70
2010,08,23,00,15,13.70
2010,08,23,00,16,13.70
2010,08,23,00,17,13.70
2010,08,23,00,18,13.60
2010,08,23,00,19,13.60
2010,08,23,00,20,13.50
2010,08,23,00,21,13.50
2010,08,23,00,22,13.50
2010,08,23,00,23,13.40
2010,08,23,00,24,13.40
2010,08,23,00,25,13.40
2010,08,23,00,26,13.30
2010,08,23,00,27,13.30
2010,08,23,00,28,13.30
2010,08,23,00,29,13.30
2010,08,23,00,30,13.30
2010,08,23,00,31,13.30
2010,08,23,00,32,13.20
2010,08,23,00,33,13.20
2010,08,23,00,34,13.20
2010,08,23,00,35,13.20
2010,08,23,00,36,13.10
2010,08,23,00,37,13.10
2010,08,23,00,38,13.10
2010,08,23,00,39,13.10
2010,08,23,00,40,13.10
2010,08,23,00,41,13.00
2010,08,23,00,42,13.00
2010,08,23,00,43,13.00
2010,08,23,00,44,12.90
2010,08,23,00,45,12.90
2010,08,23,00,46,12.90
2010,08,23,00,47,12.90
2010,08,23,00,48,12.90
2010,08,23,00,49,12.90
2010,08,23,00,50,12.90
2010,08,23,00,51,12.90
2010,08,23,00,52,12.90
2010,08,23,00,53,12.90
2010,08,23,00,54,12.90
2010,08,23,00,55,12.90
2010,08,23,00,56,12.90
2010,08,23,00,57,12.90
2010,08,23,00,58,12.90
2010,08,23,00,59,12.90
2010,08,23,01,00,12.90
2010,08,23,01,01,12.90
2010,08,23,01,02,13.00
2010,08,23,01,03,13.00
2010,08,23,01,04,13.10
2010,08,23,01,05,13.10
2010,08,23,01,06,13.20
2010,08,23,01,07,13.20
2010,08,23,01,08,13.30
2010,08,23,01,09,13.40
2010,08,23,01,10,13.50
2010,08,23,01,11,13.60
2010,08,23,01,12,13.60
2010,08,23,01,13,13.70
2010,08,23,01,14,13.80
2010,08,23,01,15,13.80
2010,08,23,01,16,13.90
2010,08,23,01,17,13.90
2010,08,23,01,18,13.90
2010,08,23,01,19,13.90
2010,08,23,01,20,13.90
2010,08,23,01,21,13.90
2010,08,23,01,22,13.80
2010,08,23,01,23,13.80
2010,08,23,01,24,13.80
2010,08,23,01,25,13.80
2010,08,23,01,26,13.80
2010,08,23,01,27,13.80
2010,08,23,01,28,13.70
2010,08,23,01,29,13.70
2010,08,23,01,30,13.70
2010,08,23,01,31,13.70
2010,08,23,01,32,13.70
2010,08,23,01,33,13.70
2010,08,23,01,34,13.70
2010,08,23,01,35,13.70
2010,08,23,01,36,13.70
2010,08,23,01,37,13.70
2010,08,23,01,38,13.70
2010,08,23,01,39,13.70
2010,08,23,01,40,13.70
2010,08,23,01,41,13.60
2010,08,23,01,42,13.60
2010,08,23,01,43,13.60
2010,08,23,01,44,13.60
2010,08,23,01,45,13.60
2010,08,23,01,46,13.50
2010,08,23,01,47,13.50
2010,08,23,01,48,13.40
2010,08,23,01,49,13.40
2010,08,23,01,50,13.40
2010,08,23,01,51,13.40
2010,08,23,01,52,13.40
2010,08,23,01,53,13.40
2010,08,23,01,54,13.40
2010,08,23,01,55,13.40
2010,08,23,01,56,13.30
2010,08,23,01,57,13.30
2010,08,23,01,58,13.30
2010,08,23,01,59,13.30
2010,08,23,02,00,13.30
2010,08,23,02,01,13.30
2010,08,23,02,02,13.30
2010,08,23,02,03,13.30
2010,08,23,02,04,13.30
2010,08,23,02,05,13.20
2010,08,23,02,06,13.20
2010,08,23,02,07,13.20
2010,08,23,02,08,13.20
2010,08,23,02,09,13.20
2010,08,23,02,10,13.20
2010,08,23,02,11,13.10
2010,08,23,02,12,13.10
2010,08,23,02,13,13.10
2010,08,23,02,14,13.10
2010,08,23,02,15,13.10
2010,08,23,02,16,13.20
2010,08,23,02,17,13.20
2010,08,23,02,18,13.20
2010,08,23,02,19,13.20
2010,08,23,02,20,13.20
2010,08,23,02,21,13.20
2010,08,23,02,22,13.20
2010,08,23,02,23,13.20
2010,08,23,02,24,13.20
2010,08,23,02,25,13.20
2010,08,23,02,26,13.20
2010,08,23,02,27,13.20
2010,08,23,02,28,13.20
2010,08,23,02,29,13.20
2010,08,23,02,30,13.20
2010,08,23,02,31,13.20
2010,08,23,02,32,13.20
2010,08,23,02,33,13.20
2010,08,23,02,34,13.20
2010,08,23,02,35,13.20
2010,08,23,02,36,13.20
2010,08,23,02,37,13.20
2010,08,23,02,38,13.20
2010,08,23,02,39,13.20
2010,08,23,02,40,13.20
2010,08,23,02,41,13.20
2010,08,23,02,42,13.20
2010,08,23,02,43,13.20
2010,08,23,02,44,13.20
2010,08,23,02,45,13.20
2010,08,23,02,46,13.20
2010,08,23,02,47,13.20
2010,08,23,02,48,13.20
2010,08,23,02,49,13.30
2010,08,23,02,50,13.30
2010,08,23,02,51,13.30
2010,08,23,02,52,13.30
2010,08,23,02,53,13.30
2010,08,23,02,54,13.30
2010,08,23,02,55,13.30
2010,08,23,02,56,13.30
2010,08,23,02,57,13.30
2010,08,23,02,58,13.30
2010,08,23,02,59,13.30
2010,08,23,03,00,13.30
2010,08,23,03,01,13.30
2010,08,23,03,02,13.30
2010,08,23,03,03,13.30
2010,08,23,03,04,13.30
2010,08,23,03,05,13.30
2010,08,23,03,06,13.30
2010,08,23,03,07,13.30
2010,08,23,03,08,13.30
2010,08,23,03,09,13.30
2010,08,23,03,10,13.30
2010,08,23,03,11,13.30
2010,08,23,03,12,13.20
2010,08,23,03,13,13.20
2010,08,23,03,14,13.20
2010,08,23,03,15,13.20
2010,08,23,03,16,13.20
2010,08,23,03,17,13.20
2010,08,23,03,18,13.20
2010,08,23,03,19,13.20
2010,08,23,03,20,13.10
2010,08,23,03,21,13.10
2010,08,23,03,22,13.10
2010,08,23,03,23,13.00
2010,08,23,03,24,13.00
2010,08,23,03,25,12.90
2010,08,23,03,26,12.90
2010,08,23,03,27,12.90
2010,08,23,03,28,12.90
2010,08,23,03,29,12.90
2010,08,23,03,30,12.80
2010,08,23,03,31,12.80
2010,08,23,03,32,12.80
2010,08,23,03,33,12.80
2010,08,23,03,34,12.70
2010,08,23,03,35,12.70
2010,08,23,03,36,12.70
2010,08,23,03,37,12.70
2010,08,23,03,38,12.60
2010,08,23,03,39,12.60
2010,08,23,03,40,12.60
2010,08,23,03,41,12.60
2010,08,23,03,42,12.60
2010,08,23,03,43,12.60
2010,08,23,03,44,12.60
2010,08,23,03,45,12.60
2010,08,23,03,46,12.60
2010,08,23,03,47,12.60
2010,08,23,03,48,12.60
2010,08,23,03,49,12.60
2010,08,23,03,50,12.60
2010,08,23,03,51,12.60
2010,08,23,03,52,12.60
2010,08,23,03,53,12.60
2010,08,23,03,54,12.60
2010,08,23,03,55,12.60
2010,08,23,03,56,12.60
2010,08,23,03,57,12.60
2010,08,23,03,58,12.60
2010,08,23,03,59,12.50
2010,08,23,04,00,12.50
2010,08,23,04,01,12.50
2010,08,23,04,02,12.40
2010,08,23,04,03,12.40
2010,08,23,04,04,12.40
2010,08,23,04,05,12.40
2010,08,23,04,06,12.40
2010,08,23,04,07,12.40
2010,08,23,04,08,12.40
2010,08,23,04,09,12.40
2010,08,23,04,10,12.40
2010,08,23,04,11,12.30
2010,08,23,04,12,12.30
2010,08,23,04,13,12.30
2010,08,23,04,14,12.40
2010,08,23,04,15,12.40
2010,08,23,04,16,12.40
2010,08,23,04,17,12.40
2010,08,23,04,18,12.40
2010,08,23,04,19,12.40
2010,08,23,04,20,12.40
2010,08,23,04,21,12.40
2010,08,23,04,22,12.50
2010,08,23,04,23,12.50
2010,08,23,04,24,12.50
2010,08,23,04,25,12.50
2010,08,23,04,26,12.60
2010,08,23,04,27,12.60
2010,08,23,04,28,12.50
2010,08,23,04,29,12.60
2010,08,23,04,30,12.50
2010,08,23,04,31,12.50
2010,08,23,04,32,12.50
2010,08,23,04,33,12.50
2010,08,23,04,34,12.50
2010,08,23,04,35,12.50
2010,08,23,04,36,12.50
2010,08,23,04,37,12.50
2010,08,23,04,38,12.50
2010,08,23,04,39,12.50
2010,08,23,04,40,12.50
2010,08,23,04,41,12.60
2010,08,23,04,42,12.60
2010,08,23,04,43,12.60
2010,08,23,04,44,12.60
2010,08,23,04,45,12.60
2010,08,23,04,46,12.50
2010,08,23,04,47,12.50
2010,08,23,04,48,12.50
2010,08,23,04,49,12.50
2010,08,23,04,50,12.50
2010,08,23,04,51,12.50
2010,08,23,04,52,12.50
2010,08,23,04,53,12.40
2010,08,23,04,54,12.40
2010,08,23,04,55,12.40
2010,08,23,04,56,12.40
2010,08,23,04,57,12.40
2010,08,23,04,58,12.30
2010,08,23,04,59,12.30
2010,08,23,05,00,12.30
2010,08,23,05,01,12.30
2010,08,23,05,02,12.20
2010,08,23,05,03,12.20
2010,08,23,05,04,12.20
2010,08,23,05,05,12.20
2010,08,23,05,06,12.10
2010,08,23,05,07,12.10
2010,08,23,05,08,12.10
2010,08,23,05,09,12.10
2010,08,23,05,10,12.10
2010,08,23,05,11,12.10
2010,08,23,05,12,12.00
2010,08,23,05,13,12.00
2010,08,23,05,14,12.00
2010,08,23,05,15,12.00
2010,08,23,05,16,12.00
2010,08,23,05,17,11.90
2010,08,23,05,18,11.90
2010,08,23,05,19,11.90
2010,08,23,05,20,11.90
2010,08,23,05,21,11.90
2010,08,23,05,22,11.90
2010,08,23,05,23,11.90
2010,08,23,05,24,11.90
2010,08,23,05,25,11.90
2010,08,23,05,26,11.90
2010,08,23,05,27,12.00
2010,08,23,05,28,12.00
2010,08,23,05,29,12.10
2010,08,23,05,30,12.10
2010,08,23,05,31,12.10
2010,08,23,05,32,12.10
2010,08,23,05,33,12.10
2010,08,23,05,34,12.10
2010,08,23,05,35,12.10
2010,08,23,05,36,12.10
2010,08,23,05,37,12.20
2010,08,23,05,38,12.10
2010,08,23,05,39,12.20
2010,08,23,05,40,12.20
2010,08,23,05,41,12.20
2010,08,23,05,42,12.20
2010,08,23,05,43,12.20
2010,08,23,05,44,12.20
2010,08,23,05,45,12.30
2010,08,23,05,46,12.30
2010,08,23,05,47,12.30
2010,08,23,05,48,12.30
2010,08,23,05,49,12.30
2010,08,23,05,50,12.30
2010,08,23,05,51,12.20
2010,08,23,05,52,12.20
2010,08,23,05,53,12.20
2010,08,23,05,54,12.10
2010,08,23,05,55,12.10
2010,08,23,05,56,12.00
2010,08,23,05,57,12.00
2010,08,23,05,58,11.90
2010,08,23,05,59,11.90
2010,08,23,06,00,11.90
2010,08,23,06,01,11.90
2010,08,23,06,02,11.90
2010,08,23,06,03,11.90
2010,08,23,06,04,11.80
2010,08,23,06,05,11.80
2010,08,23,06,06,11.80
2010,08,23,06,07,11.80
2010,08,23,06,08,11.80
2010,08,23,06,09,11.80
2010,08,23,06,10,11.80
2010,08,23,06,11,11.80
2010,08,23,06,12,11.80
2010,08,23,06,13,11.80
2010,08,23,06,14,11.80
2010,08,23,06,15,11.80
2010,08,23,06,16,11.80
2010,08,23,06,17,11.80
2010,08,23,06,18,11.80
2010,08,23,06,19,11.80
2010,08,23,06,20,11.80
2010,08,23,06,21,11.80
2010,08,23,06,22,11.80
2010,08,23,06,23,11.90
2010,08,23,06,24,11.90
2010,08,23,06,25,12.00
2010,08,23,06,26,12.00
2010,08,23,06,27,12.10
2010,08,23,06,28,12.10
2010,08,23,06,29,12.20
2010,08,23,06,30,12.20
2010,08,23,06,31,12.10
2010,08,23,06,32,12.10
2010,08,23,06,33,12.10
2010,08,23,06,34,12.00
2010,08,23,06,35,12.00
2010,08,23,06,36,11.90
2010,08,23,06,37,11.90
2010,08,23,06,38,11.90
2010,08,23,06,39,11.90
2010,08,23,06,40,11.80
2010,08,23,06,41,11.80
2010,08,23,06,42,11.80
2010,08,23,06,43,11.80
2010,08,23,06,44,11.80
2010,08,23,06,45,11.70
2010,08,23,06,46,11.70
2010,08,23,06,47,11.70
2010,08,23,06,48,11.60
2010,08,23,06,49,11.60
2010,08,23,06,50,11.60
2010,08,23,06,51,11.50
2010,08,23,06,52,11.50
2010,08,23,06,53,11.50
2010,08,23,06,54,11.50
2010,08,23,06,55,11.50
2010,08,23,06,56,11.50
2010,08,23,06,57,11.50
2010,08,23,06,58,11.50
2010,08,23,06,59,11.50
2010,08,23,07,00,11.50
2010,08,23,07,01,11.50
2010,08,23,07,02,11.50
2010,08,23,07,03,11.50
2010,08,23,07,04,11.50
2010,08,23,07,05,11.50
2010,08,23,07,06,11.50
2010,08,23,07,07,11.50
2010,08,23,07,08,11.60
2010,08,23,07,09,11.60
2010,08,23,07,10,11.60
2010,08,23,07,11,11.60
2010,08,23,07,12,11.60
2010,08,23,07,13,11.60
2010,08,23,07,14,11.60
2010,08,23,07,15,11.60
2010,08,23,07,16,11.70
2010,08,23,07,17,11.70
2010,08,23,07,18,11.70
2010,08,23,07,19,11.70
2010,08,23,07,20,11.70
2010,08,23,07,21,11.70
2010,08,23,07,22,11.70
2010,08,23,07,23,11.80
2010,08,23,07,24,11.80
2010,08,23,07,25,11.80
2010,08,23,07,26,11.80
2010,08,23,07,27,11.80
2010,08,23,07,28,11.80
2010,08,23,07,29,11.80
2010,08,23,07,30,11.80
2010,08,23,07,31,11.80
2010,08,23,07,32,11.80
2010,08,23,07,33,11.80
2010,08,23,07,34,11.80
2010,08,23,07,35,11.80
2010,08,23,07,36,11.80
2010,08,23,07,37,11.80
2010,08,23,07,38,11.80
2010,08,23,07,39,11.80
2010,08,23,07,40,11.90
2010,08,23,07,41,11.90
2010,08,23,07,42,11.90
2010,08,23,07,43,11.90
2010,08,23,07,44,12.00
2010,08,23,07,45,12.10
2010,08,23,07,46,12.10
2010,08,23,07,47,12.10
2010,08,23,07,48,12.20
2010,08,23,07,49,12.20
2010,08,23,07,50,12.20
2010,08,23,07,51,12.30
2010,08,23,07,52,12.30
2010,08,23,07,53,12.30
2010,08,23,07,54,12.30
2010,08,23,07,55,12.40
2010,08,23,07,56,12.40
2010,08,23,07,57,12.40
2010,08,23,07,58,12.50
2010,08,23,07,59,12.50
2010,08,23,08,00,12.50
2010,08,23,08,01,12.60
2010,08,23,08,02,12.60
2010,08,23,08,03,12.60
2010,08,23,08,04,12.70
2010,08,23,08,05,12.70
2010,08,23,08,06,12.70
2010,08,23,08,07,12.70
2010,08,23,08,08,12.70
2010,08,23,08,09,12.70
2010,08,23,08,10,12.70
2010,08,23,08,11,12.70
2010,08,23,08,12,12.70
2010,08,23,08,13,12.70
2010,08,23,08,14,12.70
2010,08,23,08,15,12.60
2010,08,23,08,16,12.60
2010,08,23,08,17,12.60
2010,08,23,08,18,12.60
2010,08,23,08,19,12.60
2010,08,23,08,20,12.60
2010,08,23,08,21,12.60
2010,08,23,08,22,12.60
2010,08,23,08,23,12.60
2010,08,23,08,24,12.60
2010,08,23,08,25,12.60
2010,08,23,08,26,12.60
2010,08,23,08,27,12.60
2010,08,23,08,28,12.60
2010,08,23,08,29,12.70
2010,08,23,08,30,12.70
2010,08,23,08,31,12.80
2010,08,23,08,32,12.80
2010,08,23,08,33,12.90
2010,08,23,08,34,13.00
2010,08,23,08,35,13.10
2010,08,23,08,36,13.20
2010,08,23,08,37,13.30
2010,08,23,08,38,13.30
2010,08,23,08,39,13.40
2010,08,23,08,40,13.50
2010,08,23,08,41,13.60
2010,08,23,08,42,13.70
2010,08,23,08,43,13.70
2010,08,23,08,44,13.80
2010,08,23,08,45,13.90
2010,08,23,08,46,14.00
2010,08,23,08,47,14.00
2010,08,23,08,48,14.10
2010,08,23,08,49,14.20
2010,08,23,08,50,14.20
2010,08,23,08,51,14.30
2010,08,23,08,52,14.30
2010,08,23,08,53,14.30
2010,08,23,08,54,14.40
2010,08,23,08,55,14.40
2010,08,23,08,56,14.40
2010,08,23,08,57,14.50
2010,08,23,08,58,14.50
2010,08,23,08,59,14.60
2010,08,23,09,00,14.60
2010,08,23,09,01,14.60
2010,08,23,09,02,14.60
2010,08,23,09,03,14.70
2010,08,23,09,04,14.70
2010,08,23,09,05,14.70
2010,08,23,09,06,14.70
2010,08,23,09,07,14.80
2010,08,23,09,08,14.80
2010,08,23,09,09,15.00
2010,08,23,09,10,15.00
2010,08,23,09,11,15.00
2010,08,23,09,12,15.20
2010,08,23,09,13,15.30
2010,08,23,09,14,15.40
2010,08,23,09,15,15.60
2010,08,23,09,16,15.70
2010,08,23,09,17,15.80
2010,08,23,09,18,16.00
2010,08,23,09,19,16.10
2010,08,23,09,20,16.20
2010,08,23,09,21,16.30
2010,08,23,09,22,16.40
2010,08,23,09,23,16.40
2010,08,23,09,24,16.50
2010,08,23,09,25,16.60
2010,08,23,09,26,16.80
2010,08,23,09,27,16.90
2010,08,23,09,28,17.00
2010,08,23,09,29,17.10
2010,08,23,09,30,17.10
2010,08,23,09,31,17.20
2010,08,23,09,32,17.20
2010,08,23,09,33,17.20
2010,08,23,09,34,17.20
2010,08,23,09,35,17.30
2010,08,23,09,36,17.30
2010,08,23,09,37,17.40
2010,08,23,09,38,17.40
2010,08,23,09,39,17.40
2010,08,23,09,40,17.40
2010,08,23,09,41,17.40
2010,08,23,09,42,17.50
2010,08,23,09,43,17.50
2010,08,23,09,44,17.60
2010,08,23,09,45,17.60
2010,08,23,09,46,17.60
2010,08,23,09,47,17.50
2010,08,23,09,48,17.50
2010,08,23,09,49,17.40
2010,08,23,09,50,17.40
2010,08,23,09,51,17.50
2010,08,23,09,52,17.60
2010,08,23,09,53,17.50
2010,08,23,09,54,17.40
2010,08,23,09,55,17.30
2010,08,23,09,56,17.20
2010,08,23,09,57,17.10
2010,08,23,09,58,17.10
2010,08,23,09,59,17.10
2010,08,23,10,00,17.10
2010,08,23,10,01,17.10
2010,08,23,10,02,17.20
2010,08,23,10,03,17.20
2010,08,23,10,04,17.20
2010,08,23,10,05,17.20
2010,08,23,10,06,17.10
2010,08,23,10,07,17.10
2010,08,23,10,08,17.10
2010,08,23,10,09,17.20
2010,08,23,10,10,17.20
2010,08,23,10,11,17.20
2010,08,23,10,12,17.10
2010,08,23,10,13,17.20
2010,08,23,10,14,17.20
2010,08,23,10,15,17.20
2010,08,23,10,16,17.30
2010,08,23,10,17,17.30
2010,08,23,10,18,17.30
2010,08,23,10,19,17.40
2010,08,23,10,20,17.50
2010,08,23,10,21,17.50
2010,08,23,10,22,17.50
2010,08,23,10,23,17.60
2010,08,23,10,24,17.60
2010,08,23,10,25,17.60
2010,08,23,10,26,17.70
2010,08,23,10,27,17.70
2010,08,23,10,28,17.70
2010,08,23,10,29,17.70
2010,08,23,10,30,17.60
2010,08,23,10,31,17.60
2010,08,23,10,32,17.70
2010,08,23,10,33,17.70
2010,08,23,10,34,17.70
2010,08,23,10,35,17.70
2010,08,23,10,36,17.60
2010,08,23,10,37,17.60
2010,08,23,10,38,17.60
2010,08,23,10,39,17.60
2010,08,23,10,40,17.60
2010,08,23,10,41,17.60
2010,08,23,10,42,17.70
2010,08,23,10,43,17.60
2010,08,23,10,44,17.50
2010,08,23,10,45,17.40
2010,08,23,10,46,17.20
2010,08,23,10,47,17.10
2010,08,23,10,48,17.00
2010,08,23,10,49,16.80
2010,08,23,10,50,16.80
2010,08,23,10,51,16.90
2010,08,23,10,52,16.90
2010,08,23,10,53,17.00
2010,08,23,10,54,17.00
2010,08,23,10,55,17.00
2010,08,23,10,56,16.90
2010,08,23,10,57,16.90
2010,08,23,10,58,16.80
2010,08,23,10,59,16.70
2010,08,23,11,00,16.70
2010,08,23,11,01,16.70
2010,08,23,11,02,16.70
2010,08,23,11,03,16.60
2010,08,23,11,04,16.60
2010,08,23,11,05,16.70
2010,08,23,11,06,16.90
2010,08,23,11,07,16.90
2010,08,23,11,08,17.10
2010,08,23,11,09,17.10
2010,08,23,11,10,17.20
2010,08,23,11,11,17.20
2010,08,23,11,12,17.20
2010,08,23,11,13,17.10
2010,08,23,11,14,17.10
2010,08,23,11,15,17.10
2010,08,23,11,16,17.10
2010,08,23,11,17,17.00
2010,08,23,11,18,16.90
2010,08,23,11,19,16.90
2010,08,23,11,20,17.00
2010,08,23,11,21,17.00
2010,08,23,11,22,17.10
2010,08,23,11,23,17.30
2010,08,23,11,24,17.40
2010,08,23,11,25,17.50
2010,08,23,11,26,17.60
2010,08,23,11,27,17.60
2010,08,23,11,28,17.60
2010,08,23,11,29,17.50
2010,08,23,11,30,17.50
2010,08,23,11,31,17.50
2010,08,23,11,32,17.50
2010,08,23,11,33,17.60
2010,08,23,11,34,17.60
2010,08,23,11,35,17.60
2010,08,23,11,36,17.60
2010,08,23,11,37,17.60
2010,08,23,11,38,17.50
2010,08,23,11,39,17.60
2010,08,23,11,40,17.60
2010,08,23,11,41,17.70
2010,08,23,11,42,17.80
2010,08,23,11,43,17.80
2010,08,23,11,44,17.80
2010,08,23,11,45,17.80
2010,08,23,11,46,17.80
2010,08,23,11,47,17.90
2010,08,23,11,48,17.90
2010,08,23,11,49,17.90
2010,08,23,11,50,18.00
2010,08,23,11,51,18.00
2010,08,23,11,52,18.00
2010,08,23,11,53,18.00
2010,08,23,11,54,17.90
2010,08,23,11,55,18.00
2010,08,23,11,56,18.00
2010,08,23,11,57,18.10
2010,08,23,11,58,18.00
2010,08,23,11,59,17.90
2010,08,23,12,00,17.90
2010,08,23,12,01,17.90
2010,08,23,12,02,17.90
2010,08,23,12,03,17.90
2010,08,23,12,04,17.90
2010,08,23,12,05,17.90
2010,08,23,12,06,17.90
2010,08,23,12,07,17.90
2010,08,23,12,08,17.90
2010,08,23,12,09,17.90
2010,08,23,12,10,17.80
2010,08,23,12,11,17.80
2010,08,23,12,12,17.80
2010,08,23,12,13,17.70
2010,08,23,12,14,17.70
2010,08,23,12,15,17.80
2010,08,23,12,16,17.90
2010,08,23,12,17,17.90
2010,08,23,12,18,18.00
2010,08,23,12,19,18.00
2010,08,23,12,20,18.00
2010,08,23,12,21,18.10
2010,08,23,12,22,18.00
2010,08,23,12,23,18.00
2010,08,23,12,24,18.00
2010,08,23,12,25,18.00
2010,08,23,12,26,18.10
2010,08,23,12,27,18.10
2010,08,23,12,28,18.20
2010,08,23,12,29,18.30
2010,08,23,12,30,18.30
2010,08,23,12,31,18.30
2010,08,23,12,32,18.40
2010,08,23,12,33,18.50
2010,08,23,12,34,18.60
2010,08,23,12,35,18.60
2010,08,23,12,36,18.60
2010,08,23,12,37,18.60
2010,08,23,12,38,18.70
2010,08,23,12,39,18.70
2010,08,23,12,40,18.80
2010,08,23,12,41,18.90
2010,08,23,12,42,18.90
2010,08,23,12,43,18.90
2010,08,23,12,44,18.90
2010,08,23,12,45,19.00
2010,08,23,12,46,18.90
2010,08,23,12,47,18.90
2010,08,23,12,48,18.90
2010,08,23,12,49,18.90
2010,08,23,12,50,18.90
2010,08,23,12,51,18.90
2010,08,23,12,52,18.90
2010,08,23,12,53,18.80
2010,08,23,12,54,18.70
2010,08,23,12,55,18.60
2010,08,23,12,56,18.60
2010,08,23,12,57,18.50
2010,08,23,12,58,18.40
2010,08,23,12,59,18.40
2010,08,23,13,00,18.40
2010,08,23,13,01,18.40
2010,08,23,13,02,18.30
2010,08,23,13,03,18.30
2010,08,23,13,04,18.30
2010,08,23,13,05,18.30
2010,08,23,13,06,18.20
2010,08,23,13,07,18.20
2010,08,23,13,08,18.30
2010,08,23,13,09,18.30
2010,08,23,13,10,18.30
2010,08,23,13,11,18.40
2010,08,23,13,12,18.40
2010,08,23,13,13,18.40
2010,08,23,13,14,18.50
2010,08,23,13,15,18.60
2010,08,23,13,16,18.60
2010,08,23,13,17,18.50
2010,08,23,13,18,18.50
2010,08,23,13,19,18.50
2010,08,23,13,20,18.50
2010,08,23,13,21,18.40
2010,08,23,13,22,18.40
2010,08,23,13,23,18.40
2010,08,23,13,24,18.40
2010,08,23,13,25,18.30
2010,08,23,13,26,18.30
2010,08,23,13,27,18.30
2010,08,23,13,28,18.30
2010,08,23,13,29,18.30
2010,08,23,13,30,18.30
2010,08,23,13,31,18.40
2010,08,23,13,32,18.40
2010,08,23,13,33,18.50
2010,08,23,13,34,18.60
2010,08,23,13,35,18.70
2010,08,23,13,36,18.90
2010,08,23,13,37,19.00
2010,08,23,13,38,19.00
2010,08,23,13,39,19.00
2010,08,23,13,40,19.10
2010,08,23,13,41,19.20
2010,08,23,13,42,19.30
2010,08,23,13,43,19.30
2010,08,23,13,44,19.20
2010,08,23,13,45,19.10
2010,08,23,13,46,19.10
2010,08,23,13,47,19.10
2010,08,23,13,48,19.10
2010,08,23,13,49,19.10
2010,08,23,13,50,19.20
2010,08,23,13,51,19.20
2010,08,23,13,52,19.20
2010,08,23,13,53,19.30
2010,08,23,13,54,19.20
2010,08,23,13,55,19.30
2010,08,23,13,56,19.30
2010,08,23,13,57,19.40
2010,08,23,13,58,19.40
2010,08,23,13,59,19.40
2010,08,23,14,00,19.30
2010,08,23,14,01,19.20
2010,08,23,14,02,19.20
2010,08,23,14,03,19.20
2010,08,23,14,04,19.20
2010,08,23,14,05,19.20
2010,08,23,14,06,19.30
2010,08,23,14,07,19.40
2010,08,23,14,08,19.50
2010,08,23,14,09,19.50
2010,08,23,14,10,19.60
2010,08,23,14,11,19.50
2010,08,23,14,12,19.50
2010,08,23,14,13,19.50
2010,08,23,14,14,19.40
2010,08,23,14,15,19.20
2010,08,23,14,16,19.20
2010,08,23,14,17,19.10
2010,08,23,14,18,19.00
2010,08,23,14,19,19.00
2010,08,23,14,20,19.00
2010,08,23,14,21,19.10
2010,08,23,14,22,19.10
2010,08,23,14,23,19.10
2010,08,23,14,24,19.20
2010,08,23,14,25,19.30
2010,08,23,14,26,19.30
2010,08,23,14,27,19.30
2010,08,23,14,28,19.40
2010,08,23,14,29,19.40
2010,08,23,14,30,19.40
2010,08,23,14,31,19.50
2010,08,23,14,32,19.50
2010,08,23,14,33,19.50
2010,08,23,14,34,19.50
2010,08,23,14,35,19.50
2010,08,23,14,36,19.50
2010,08,23,14,37,19.50
2010,08,23,14,38,19.50
2010,08,23,14,39,19.60
2010,08,23,14,40,19.50
2010,08,23,14,41,19.50
2010,08,23,14,42,19.50
2010,08,23,14,43,19.60
2010,08,23,14,44,19.70
2010,08,23,14,45,19.70
2010,08,23,14,46,19.80
2010,08,23,14,47,19.90
2010,08,23,14,48,20.00
2010,08,23,14,49,20.00
2010,08,23,14,50,20.00
2010,08,23,14,51,20.00
2010,08,23,14,52,20.00
2010,08,23,14,53,20.00
2010,08,23,14,54,20.00
2010,08,23,14,55,19.90
2010,08,23,14,56,19.90
2010,08,23,14,57,19.90
2010,08,23,14,58,20.00
2010,08,23,14,59,20.10
2010,08,23,15,00,20.00
2010,08,23,15,01,19.90
2010,08,23,15,02,19.90
2010,08,23,15,03,20.00
2010,08,23,15,04,20.00
2010,08,23,15,05,20.00
2010,08,23,15,06,19.90
2010,08,23,15,07,19.90
2010,08,23,15,08,19.90
2010,08,23,15,09,19.90
2010,08,23,15,10,19.90
2010,08,23,15,11,20.00
2010,08,23,15,12,20.00
2010,08,23,15,13,20.10
2010,08,23,15,14,20.20
2010,08,23,15,15,20.20
2010,08,23,15,16,20.30
2010,08,23,15,17,20.30
2010,08,23,15,18,20.30
2010,08,23,15,19,20.30
2010,08,23,15,20,20.20
2010,08,23,15,21,20.20
2010,08,23,15,22,20.10
2010,08,23,15,23,20.10
2010,08,23,15,24,20.10
2010,08,23,15,25,20.00
2010,08,23,15,26,20.00
2010,08,23,15,27,19.90
2010,08,23,15,28,19.90
2010,08,23,15,29,19.90
2010,08,23,15,30,19.90
2010,08,23,15,31,19.70
2010,08,23,15,32,19.70
2010,08,23,15,33,19.60
2010,08,23,15,34,19.50
2010,08,23,15,35,19.50
2010,08,23,15,36,19.50
2010,08,23,15,37,19.40
2010,08,23,15,38,19.40
2010,08,23,15,39,19.40
2010,08,23,15,40,19.40
2010,08,23,15,41,19.30
2010,08,23,15,42,19.30
2010,08,23,15,43,19.30
2010,08,23,15,44,19.30
2010,08,23,15,45,19.30
2010,08,23,15,46,19.30
2010,08,23,15,47,19.20
2010,08,23,15,48,19.10
2010,08,23,15,49,19.10
2010,08,23,15,50,19.00
2010,08,23,15,51,19.00
2010,08,23,15,52,19.00
2010,08,23,15,53,19.00
2010,08,23,15,54,18.90
2010,08,23,15,55,18.90
2010,08,23,15,56,18.90
2010,08,23,15,57,18.90
2010,08,23,15,58,18.90
2010,08,23,15,59,18.90
2010,08,23,16,00,18.90
2010,08,23,16,01,18.90
2010,08,23,16,02,19.00
2010,08,23,16,03,19.00
2010,08,23,16,04,18.90
2010,08,23,16,05,18.90
2010,08,23,16,06,18.90
2010,08,23,16,07,18.90
2010,08,23,16,08,19.00
2010,08,23,16,09,19.10
2010,08,23,16,10,19.20
2010,08,23,16,11,19.30
2010,08,23,16,12,19.30
2010,08,23,16,13,19.40
2010,08,23,16,14,19.40
2010,08,23,16,15,19.50
2010,08,23,16,16,19.50
2010,08,23,16,17,19.40
2010,08,23,16,18,19.40
2010,08,23,16,19,19.40
2010,08,23,16,20,19.30
2010,08,23,16,21,19.30
2010,08,23,16,22,19.30
2010,08,23,16,23,19.20
2010,08,23,16,24,19.20
2010,08,23,16,25,19.20
2010,08,23,16,26,19.20
2010,08,23,16,27,19.20
2010,08,23,16,28,19.30
2010,08,23,16,29,19.30
2010,08,23,16,30,19.40
2010,08,23,16,31,19.40
2010,08,23,16,32,19.40
2010,08,23,16,33,19.40
2010,08,23,16,34,19.30
2010,08,23,16,35,19.30
2010,08,23,16,36,19.20
2010,08,23,16,37,19.10
2010,08,23,16,38,19.10
2010,08,23,16,39,19.10
2010,08,23,16,40,19.10
2010,08,23,16,41,19.10
2010,08,23,16,42,19.20
2010,08,23,16,43,19.20
2010,08,23,16,44,19.20
2010,08,23,16,45,19.20
2010,08,23,16,46,19.20
2010,08,23,16,47,19.30
2010,08,23,16,48,19.30
2010,08,23,16,49,19.30
2010,08,23,16,50,19.30
2010,08,23,16,51,19.30
2010,08,23,16,52,19.30
2010,08,23,16,53,19.30
2010,08,23,16,54,19.30
2010,08,23,16,55,19.30
2010,08,23,16,56,19.30
2010,08,23,16,57,19.30
2010,08,23,16,58,19.30
2010,08,23,16,59,19.30
2010,08,23,17,00,19.30
2010,08,23,17,01,19.30
2010,08,23,17,02,19.40
2010,08,23,17,03,19.50
2010,08,23,17,04,19.50
2010,08,23,17,05,19.60
2010,08,23,17,06,19.70
2010,08,23,17,07,19.90
2010,08,23,17,08,20.00
2010,08,23,17,09,20.20
2010,08,23,17,10,20.30
2010,08,23,17,11,20.30
2010,08,23,17,12,20.40
2010,08,23,17,13,20.50
2010,08,23,17,14,20.60
2010,08,23,17,15,20.70
2010,08,23,17,16,20.80
2010,08,23,17,17,20.80
2010,08,23,17,18,20.80
2010,08,23,17,19,20.80